sat.trackr.live / text

‹ back to catalog

STARLINK-37168

NORAD 68766 · 2026-086A

PAYLOAD ACTIVE UNKNOWN

§ Identity

Operator
Country
US
Launch date
2026-04-19
Launch site
AFWTR
Launch vehicle
Mass (kg)
RCS (m²)

Purposes: comms

External: N2YO · Heavens-Above · Gunter

§ Orbital elements

Epoch: 2026-09-20T21:54:33.517152Z

Period
93.91 min
Inclination
97.2852°
Eccentricity
0.0001073
Mean motion
15.33439006 rev/d
Perigee alt
464.8 km
Apogee alt
466.3 km
Semi-major
6,843.7 km
B*
3.3801e-4
RAAN
299.4138°
Arg perigee
94.5098°
Mean anomaly
265.6268°
Rev number
2,375

§ Raw data

STARLINK-371681 68766U 26086A   26263.91288793  .00010851  00000+0  33801-3 0  99932 68766  97.2852 299.4138 0001073  94.5098 265.6268 15.33439006 23756

JSON: /api/v1/satellites/68766 · /tle

For live sub-satellite position, see the globe view (requires WebGL).

§ Visibility from observer

Set your observer location to see the next 7 days of passes ≥ 10°. The values pass through the URL so the page stays shareable.

No JS? Fill the form by hand. The geolocation button needs JavaScript.